Temperature
19 20 20 21 20 19 18 18 18 19 18 20 19 19 20 21 21 21 21 21 22 21 21 21 20 20 19 19 18 18 17 16 16 16 15 15 14 14 14 14 13 13 13 13
20 20 20 21 21 20 20 19 19 19 19 19 19 20 20 20 21 21 22 22 22 22 22 21 21 20 20 19 18 18 17 17 16 16 15 15 15 14 14 14 13 13 13 13
19 20 20 20 20 20 20 19 19 19 20 19 18 18 19 21 21 22 23 23 23 23 22 22 22 21 20 19 18 18 17 17 16 16 16 15 15 15 14 14 14 13 13 13
17 19 20 20 20 20 20 19 18 18 18 18 18 20 21 22 23 23 24 24 24 23 23 22 22 21 20 19 19 18 18 17 17 16 16 16 15 15 15 14 14 14 13 13
16 18 19 20 20 19 19 19 18 17 18 18 19 19 20 21 23 24 24 24 24 24 23 22 21 21 20 19 19 18 18 17 17 16 16 16 15 15 15 14 14 14 13 13
15 18 18 19 20 19 19 19 18 17 17 17 18 18 19 22 23 23 24 24 24 23 23 22 21 20 20 19 19 18 18 18 17 17 16 16 15 15 15 14 14 13 13 13
15 17 17 18 18 19 19 19 18 17 17 17 17 18 20 22 23 23 23 23 23 23 22 22 21 20 20 19 19 19 18 17 17 16 16 16 15 15 14 14 14 13 13 13
14 16 17 18 18 18 18 18 18 18 18 18 19 19 20 21 22 23 23 23 22 22 22 21 20 20 19 19 19 18 17 17 16 16 16 15 15 15 14 14 13 13 13 13
14 16 16 16 17 17 17 17 18 18 19 19 19 19 20 21 21 22 22 22 22 21 21 20 19 19 19 18 18 17 17 16 16 16 15 15 15 14 14 13 13 13 13 12
14 15 15 17 17 17 18 18 18 18 18 19 18 19 19 19 20 20 20 20 20 20 20 19 18 18 18 17 17 17 16 16 16 15 15 14 14 14 13 13 13 12 12 12
14 14 15 17 17 17 18 18 18 18 18 18 18 19 19 19 19 19 19 19 19 19 19 18 18 17 17 17 16 16 16 15 15 15 14 14 14 13 13 13 12 12 12 12
15 15 15 16 17 17 17 17 17 17 17 17 18 18 18 18 18 18 18 18 18 18 17 17 17 16 16 16 16 15 15 15 14 14 14 13 13 13 13 12 12 12 12 11
17 17 16 16 16 17 17 17 16 17 17 17 17 17 17 17 17 17 17 17 16 16 16 16 16 15 15 15 15 14 14 14 13 13 13 13 12 12 12 12 12 12 12 11
16 16 15 15 15 16 16 16 16 16 16 16 16 16 16 16 16 16 16 16 15 15 15 15 15 15 14 14 14 13 13 13 13 12 12 12 12 12 11 11 11 11 11 11
16 16 15 15 15 15 15 16 16 15 15 15 16 15 15 15 15 15 15 15 15 14 14 14 14 13 13 13 13 13 12 12 12 12 11 11 11 11 11 11 10 10 11 11
15 15 15 15 14 14 15 15 15 14 14 14 14 14 14 14 14 14 14 14 14 13 13 13 13 13 12 12 12 12 12 11 11 11 11 11 10 10 10 10 10 10 10 10
14 14 14 14 14 14 14 14 14 14 14 14 14 13 13 13 13 13 13 13 13 13 12 12 12 12 12 12 11 11 11 11 11 10 10 10 10 10 9 9 9 9 9 9
15 14 14 14 14 13 13 13 13 13 13 13 13 13 13 13 13 12 12 12 12 12 12 12 11 11 11 11 11 11 11 10 10 10 10 10 9 9 9 9 9 9 9 9
14 14 14 14 14 14 13 13 13 13 13 13 13 12 12 12 12 12 12 12 12 11 11 11 11 11 11 10 10 10 10 10 10 9 9 9 9 9 8 8 8 8 8 8
13 13 13 13 13 13 13 13 12 12 12 12 12 12 12 12 12 11 11 11 11 11 11 11 10 10 10 10 10 10 9 9 9 9 9 9 8 8 8 8 8 8 7 7
13 13 13 13 12 12 12 12 12 12 12 12 12 12 12 11 11 11 11 11 11 11 10 10 10 10 10 9 9 9 9 9 8 8 8 8 8 7 7 7 7 7 7 7
13 13 12 12 12 12 12 12 12 12 12 12 12 11 11 11 11 11 11 11 10 10 10 10 10 9 9 9 9 9 8 8 8 8 7 7 7 7 7 7 6 6 6 6
12 12 12 12 12 12 11 11 11 11 11 11 11 11 11 11 11 11 10 10 10 10 10 9 9 9 9 9 8 8 8 8 7 7 7 7 6 6 6 6 6 6 6 6
12 12 12 12 11 11 11 11 11 11 11 11 11 11 11 11 11 10 10 10 10 9 9 9 9 9 8 8 8 8 7 7 7 7 6 6 6 5 5 5 5 5 5 5
11 11 11 11 11 11 11 11 11 11 11 11 10 10 10 10 10 10 10 9 9 9 9 9 8 8 8 7 7 7 7 6 6 6 6 5 5 5 5 5 5 5 5 5
11 11 11 11 11 11 11 10 10 10 10 10 10 10 10 10 9 9 9 9 9 8 8 8 8 7 7 7 7 6 6 6 6 5 5 5 5 5 4 4 4 4 4 4
10 10 10 10 10 10 10 10 10 10 10 9 9 9 9 9 9 9 8 8 8 8 7 7 7 6 6 6 6 6 5 5 5 5 4 4 4 4 4 4 4 4 4 4
Wind_Speed
6 4 4 5 6 8 8 8 9 9 9 11 9 11 11 10 10 9 10 12 13 13 12 11 11 10 10 10 10 10 9 9 10 8 7 6 6 6 6 5 6 5 5 5
2 3 4 4 6 9 9 6 7 6 9 9 5 5 6 9 11 12 13 14 14 13 13 13 13 13 11 11 10 10 10 10 9 7 7 7 7 6 6 6 5 5 5 6
3 2 1 5 7 8 6 6 7 9 10 3 3 7 10 10 11 13 14 14 14 15 15 15 15 14 14 12 10 10 10 9 8 8 8 8 7 6 7 7 5 5 6 6
2 2 5 8 2 4 5 5 6 7 7 6 7 6 5 7 11 12 12 13 13 12 12 12 11 11 11 10 10 11 10 9 9 9 9 7 7 7 7 5 5 6 7 7
4 3 6 5 3 4 5 5 5 5 6 4 2 2 1 3 6 9 11 11 11 11 10 10 11 11 11 10 10 10 10 10 10 10 9 8 8 8 6 5 6 6 6 7
4 4 7 7 2 2 3 5 3 3 3 1 4 3 4 3 4 5 4 5 7 8 8 9 9 11 12 11 10 11 11 10 9 9 9 9 9 7 5 6 7 7 7 8
4 4 7 5 1 4 4 7 2 3 2 2 3 4 2 0 2 3 4 4 6 8 8 8 10 11 11 10 11 10 7 6 7 7 8 7 6 5 5 5 5 6 8 8
5 4 7 2 2 5 6 2 0 1 1 2 1 2 3 3 3 4 5 6 6 7 6 6 9 10 9 9 8 6 6 6 6 6 6 5 6 5 5 5 6 7 7 8
7 7 4 2 3 2 1 1 1 1 1 3 2 3 4 4 5 5 6 6 6 8 8 6 6 8 8 6 6 7 6 5 4 4 4 4 5 5 4 5 5 6 6 8
4 6 5 4 3 2 2 2 0 1 2 4 5 4 5 5 6 6 6 6 6 9 8 6 5 5 5 5 6 6 5 4 3 4 3 3 3 4 4 5 6 6 7 8
5 6 4 3 2 2 2 3 4 4 4 4 6 5 5 5 5 5 6 5 6 8 7 5 5 4 4 5 6 6 4 3 3 3 3 3 4 5 6 7 7 8 7 7
7 6 4 2 1 3 6 5 5 6 7 6 5 5 6 6 5 5 6 6 7 7 6 5 5 4 3 4 6 6 3 2 2 2 2 3 4 5 8 10 12 14 14 12
4 1 2 1 4 5 7 8 8 8 7 7 6 7 8 6 5 6 7 6 6 6 6 5 5 4 2 3 4 4 3 2 2 2 2 3 3 4 6 7 9 12 14 15
3 5 4 3 4 6 9 9 9 9 8 8 7 7 7 7 7 7 6 5 5 6 5 5 5 3 1 2 3 3 2 1 1 2 3 3 4 4 5 6 8 7 8 11
2 4 6 6 7 8 8 9 11 10 9 9 8 8 8 8 7 6 4 5 6 7 5 5 4 2 2 2 3 2 1 1 1 2 3 3 4 4 5 6 7 8 8 9
6 9 10 11 10 9 10 10 10 8 7 7 7 7 6 7 6 6 6 5 6 5 4 4 2 1 1 2 2 1 1 2 2 2 3 3 4 4 5 6 7 7 8 9
8 8 9 10 10 9 8 8 8 7 6 6 6 6 6 7 7 7 6 5 5 4 3 2 0 1 1 1 1 0 1 2 3 2 3 4 4 5 6 6 7 8 8 9
6 7 9 10 10 10 8 8 7 6 5 4 5 6 6 5 4 3 3 4 4 4 3 2 1 1 1 1 0 0 1 2 2 3 4 4 5 5 6 6 8 9 9 9
9 10 10 9 9 9 8 6 5 4 4 4 5 4 3 3 2 2 2 3 3 2 3 3 2 1 2 2 1 0 1 2 3 4 4 6 6 6 6 6 7 8 8 9
10 10 10 9 8 7 6 5 4 4 3 4 4 3 2 2 2 2 2 1 2 3 3 3 2 2 2 3 3 1 2 3 4 4 4 5 6 7 7 7 7 8 8 8
10 10 9 8 6 5 5 4 3 3 2 2 2 2 1 0 0 1 1 1 4 3 3 3 2 2 3 3 3 2 3 4 4 4 5 5 6 6 7 7 7 8 8 8
6 6 6 5 5 4 3 2 2 1 1 1 2 2 1 0 1 1 2 3 4 4 3 3 3 4 5 4 3 3 4 4 4 5 5 5 6 6 7 7 8 8 8 8
3 3 3 3 2 1 1 1 1 0 0 0 1 1 2 2 2 1 3 4 3 4 3 3 5 6 7 4 3 3 4 5 5 5 5 6 6 6 7 8 7 8 8 8
2 1 1 1 2 2 1 2 2 1 1 1 2 3 2 2 3 4 4 5 5 5 3 4 6 6 5 2 2 3 4 5 5 5 6 6 6 6 7 7 7 8 8 9
1 1 2 2 1 0 1 1 2 2 2 2 3 3 2 3 3 4 4 4 5 4 3 4 5 5 3 2 3 4 4 5 5 6 6 6 6 7 7 7 7 8 8 8
2 1 1 0 1 1 1 0 1 2 2 2 3 4 3 3 3 3 3 3 3 3 3 3 3 3 3 3 3 4 4 5 6 6 6 6 7 7 7 7 9 8 7 8
2 2 2 2 2 1 1 1 1 2 2 3 4 4 4 3 3 3 3 3 3 2 2 2 3 3 3 4 4 4 5 5 5 5 6 5 6 6 7 8 7 7 7 7
Wind_Direction
228 222 194 207 198 179 190 191 190 225 227 246 227 213 208 196 186 184 189 192 193 195 195 191 189 189 188 187 182 177 177 189 201 201 198 199 205 211 213 217 227 230 239 252
245 221 206 228 227 207 213 207 219 242 258 250 240 201 197 189 183 192 199 199 198 196 192 192 193 191 187 187 183 176 184 198 200 194 196 204 210 211 214 224 230 231 240 249
232 281 77 253 228 204 209 207 192 217 241 255 216 205 203 200 195 201 204 202 198 197 196 196 194 188 189 188 176 178 190 197 196 195 202 209 210 207 217 224 226 234 243 245
159 106 226 244 234 187 198 225 218 238 257 245 239 232 206 190 194 204 205 201 200 197 195 194 187 183 178 169 172 184 193 200 199 197 206 207 205 214 220 219 223 235 244 246
139 194 265 282 214 169 188 245 216 233 267 267 238 107 308 214 204 209 204 199 197 191 185 178 176 172 161 168 175 185 198 204 202 199 203 204 210 218 217 214 227 233 241 244
141 180 232 244 206 148 134 274 227 207 244 237 121 143 250 251 211 212 188 176 170 157 152 164 168 157 161 173 179 196 204 206 202 198 200 206 214 217 212 213 230 239 248 248
170 213 259 256 235 126 168 244 251 202 206 157 166 202 269 186 175 169 148 145 145 147 155 167 156 155 167 176 196 203 193 192 195 197 201 208 211 214 216 222 235 245 255 261
157 195 252 269 138 181 218 275 158 157 141 148 178 44 44 61 91 104 107 109 125 134 135 134 145 155 167 188 195 167 163 178 192 196 202 206 205 217 218 220 237 252 260 271
191 213 251 255 234 257 199 227 245 171 75 121 95 52 54 57 68 77 91 104 113 118 112 110 136 153 168 185 155 146 155 176 186 188 198 199 201 216 223 221 233 251 257 267
255 268 263 262 255 241 194 187 73 74 74 94 93 77 67 65 70 75 78 93 103 109 112 116 129 142 153 143 143 146 162 178 182 190 207 215 219 221 227 234 241 251 257 263
254 273 302 297 247 199 124 95 79 71 79 98 106 93 89 79 74 85 89 93 104 114 122 128 127 129 129 134 139 146 160 175 187 200 214 231 237 235 235 237 233 240 254 256
228 229 200 256 325 106 103 89 92 87 74 69 92 99 90 83 81 86 90 93 97 101 104 107 112 113 111 126 139 144 155 174 190 210 230 242 258 275 253 249 259 250 249 252
230 158 134 99 74 89 94 88 82 81 86 81 69 81 88 83 74 81 87 94 103 110 112 113 110 104 102 121 129 139 157 176 194 223 242 253 259 270 289 292 274 266 263 262
165 117 97 95 99 89 93 93 87 80 75 74 73 74 82 84 78 78 82 94 103 103 101 101 98 88 78 117 124 133 150 186 211 241 254 259 262 265 270 284 299 298 287 277
75 116 127 110 95 87 86 90 84 75 71 66 66 72 79 86 85 80 77 89 91 87 84 86 83 52 44 99 115 125 153 257 265 268 268 269 275 277 278 279 281 288 298 301
91 95 104 103 98 93 90 90 90 81 77 75 72 70 75 83 82 74 70 82 89 88 86 90 83 0 39 94 103 80 293 298 293 285 287 289 288 289 290 289 288 288 290 293
112 112 114 111 103 96 90 90 92 88 83 82 79 77 76 75 70 65 60 64 84 90 88 98 89 354 55 96 115 166 292 308 316 301 291 289 288 286 286 286 287 289 288 287
107 118 122 121 117 109 100 91 89 86 83 84 88 84 81 83 84 76 65 66 66 50 26 349 326 21 23 25 65 315 299 295 293 287 289 288 288 286 286 288 290 292 297 301
96 100 102 103 107 107 101 95 92 88 85 82 84 85 89 90 94 81 71 71 65 20 319 318 331 2 344 332 348 307 299 298 298 294 290 291 293 292 291 291 293 295 299 303
87 92 95 93 92 98 101 97 88 78 75 85 89 82 66 51 74 80 80 61 251 244 271 297 314 312 313 323 339 317 302 297 298 298 299 300 301 300 299 297 297 299 301 303
83 85 85 87 85 84 88 89 85 73 59 89 114 124 132 352 72 114 113 295 290 282 285 290 290 287 288 294 308 299 297 296 295 293 296 300 303 304 303 302 302 303 304 305
86 92 94 95 91 76 55 61 81 91 78 76 85 103 103 352 326 317 251 242 269 287 286 278 276 276 283 292 290 290 291 291 291 293 295 296 297 298 299 301 302 304 303 303
68 77 87 94 98 79 35 34 33 83 138 156 170 203 219 237 234 230 281 277 275 280 276 271 280 293 299 296 284 286 291 294 295 293 292 293 294 296 298 300 301 302 304 305
56 48 68 81 94 93 56 337 336 325 277 264 249 237 226 249 271 256 250 282 289 287 284 286 297 310 313 292 284 289 294 296 296 293 291 293 293 294 295 297 300 303 304 306
40 52 62 68 73 155 243 294 331 338 331 312 303 294 265 233 242 269 274 276 284 293 300 307 318 323 319 298 295 296 298 297 298 298 296 295 296 296 296 298 302 304 305 305
31 23 1 296 232 247 262 279 294 300 304 305 307 308 301 287 271 273 282 291 300 307 307 311 319 323 315 306 302 302 304 308 309 304 299 298 299 300 301 303 304 304 304 307
33 34 32 16 355 332 293 259 271 286 281 274 285 295 297 299 297 295 297 304 309 311 313 316 318 317 316 315 311 309 309 309 308 306 304 304 303 302 302 302 302 302 305 306
Height
1469 1466 1467 1467 1468 1473 1477 1480 1485 1479 1476 1463 1459 1459 1460 1462 1466 1471 1474 1478 1481 1485 1490 1494 1499 1503 1506 1510 1513 1516 1519 1521 1523 1524 1526 1527 1528 1528 1529 1529 1529 1529 1529 1529
1467 1463 1464 1465 1463 1465 1468 1469 1471 1469 1467 1453 1453 1455 1457 1459 1462 1466 1469 1472 1476 1481 1485 1490 1494 1498 1502 1506 1509 1513 1515 1517 1520 1521 1522 1524 1525 1526 1526 1527 1527 1527 1526 1526
1475 1466 1465 1471 1460 1460 1462 1460 1462 1466 1457 1451 1452 1452 1452 1455 1458 1461 1464 1468 1472 1475 1480 1485 1489 1494 1498 1502 1506 1509 1512 1514 1516 1518 1519 1521 1522 1523 1523 1524 1524 1523 1523 1522
1476 1473 1481 1464 1451 1452 1455 1455 1454 1453 1450 1448 1447 1446 1448 1451 1453 1456 1460 1464 1468 1472 1476 1481 1486 1490 1495 1499 1503 1506 1508 1511 1513 1514 1516 1517 1518 1519 1519 1520 1520 1519 1519 1518
1480 1479 1471 1458 1451 1451 1455 1454 1449 1449 1447 1445 1445 1446 1447 1448 1451 1453 1456 1460 1464 1468 1473 1477 1482 1487 1491 1495 1499 1502 1504 1507 1509 1511 1512 1513 1514 1515 1516 1516 1515 1515 1515 1514
1477 1477 1477 1458 1447 1447 1452 1455 1446 1445 1445 1444 1444 1450 1448 1446 1448 1451 1454 1458 1461 1465 1470 1474 1478 1483 1487 1491 1494 1497 1500 1503 1505 1507 1508 1509 1511 1511 1511 1511 1511 1510 1510 1509
1475 1475 1465 1449 1446 1447 1461 1455 1444 1443 1443 1443 1444 1446 1445 1445 1447 1449 1452 1456 1460 1463 1467 1471 1475 1479 1483 1487 1490 1494 1497 1500 1502 1503 1504 1506 1506 1507 1507 1507 1506 1506 1505 1504
1473 1474 1467 1445 1445 1449 1449 1443 1442 1442 1442 1443 1444 1444 1444 1445 1446 1448 1451 1455 1458 1461 1464 1469 1473 1477 1480 1484 1487 1491 1494 1496 1498 1499 1500 1501 1502 1502 1502 1502 1501 1500 1500 1499
1461 1458 1447 1445 1445 1444 1444 1443 1442 1442 1442 1443 1444 1444 1445 1446 1447 1449 1451 1454 1457 1460 1464 1467 1471 1475 1478 1482 1485 1487 1490 1492 1493 1495 1496 1497 1497 1497 1497 1496 1495 1495 1494 1492
1454 1447 1443 1442 1442 1442 1442 1442 1443 1443 1444 1444 1445 1446 1447 1447 1448 1450 1452 1455 1458 1460 1463 1466 1470 1473 1476 1480 1482 1485 1487 1488 1490 1491 1492 1492 1492 1492 1492 1491 1490 1489 1488 1486
1451 1445 1442 1440 1441 1441 1442 1442 1443 1444 1445 1446 1446 1447 1448 1449 1451 1452 1454 1457 1459 1461 1464 1467 1470 1472 1475 1478 1480 1482 1483 1485 1486 1487 1487 1487 1487 1487 1486 1486 1485 1484 1482 1480
1446 1441 1442 1441 1441 1441 1442 1443 1445 1445 1446 1448 1448 1448 1449 1450 1453 1454 1456 1458 1460 1462 1465 1468 1470 1472 1474 1476 1478 1479 1480 1481 1482 1483 1483 1483 1483 1482 1481 1481 1479 1478 1476 1474
1439 1438 1440 1441 1442 1443 1443 1445 1447 1448 1448 1449 1450 1450 1450 1452 1454 1456 1457 1460 1461 1464 1466 1468 1470 1472 1473 1475 1476 1477 1478 1478 1479 1479 1479 1478 1477 1476 1475 1474 1473 1471 1470 1468
1437 1438 1440 1441 1443 1444 1445 1447 1449 1450 1451 1451 1452 1453 1453 1455 1456 1457 1459 1461 1463 1465 1467 1468 1470 1471 1473 1474 1475 1475 1476 1476 1476 1475 1475 1474 1473 1471 1469 1467 1466 1464 1463 1461
1437 1438 1440 1442 1444 1446 1447 1449 1450 1451 1453 1454 1455 1456 1457 1457 1458 1459 1461 1463 1464 1466 1467 1469 1470 1471 1472 1473 1473 1473 1473 1473 1472 1472 1471 1469 1468 1466 1464 1462 1460 1458 1456 1454
1438 1439 1441 1443 1446 1448 1450 1452 1453 1455 1456 1457 1458 1459 1460 1460 1461 1462 1463 1464 1465 1466 1468 1469 1470 1471 1471 1471 1471 1471 1470 1470 1469 1468 1466 1465 1463 1461 1459 1457 1455 1452 1450 1447
1440 1442 1444 1446 1449 1452 1454 1456 1457 1458 1460 1460 1461 1462 1463 1463 1463 1464 1465 1466 1467 1468 1469 1469 1470 1470 1470 1469 1469 1468 1467 1466 1465 1464 1462 1460 1458 1456 1454 1452 1449 1446 1444 1442
1444 1445 1448 1450 1452 1455 1458 1459 1461 1462 1463 1464 1464 1464 1465 1465 1465 1466 1467 1467 1468 1468 1469 1469 1469 1469 1468 1467 1466 1465 1464 1463 1461 1460 1458 1456 1454 1451 1449 1446 1443 1440 1437 1435
1447 1450 1452 1455 1457 1458 1460 1462 1463 1464 1465 1465 1466 1466 1467 1467 1467 1468 1468 1468 1468 1468 1469 1468 1468 1467 1466 1465 1464 1462 1461 1459 1457 1455 1453 1451 1449 1446 1444 1441 1438 1435 1432 1429
1452 1454 1456 1458 1460 1462 1463 1464 1465 1466 1467 1467 1468 1468 1468 1468 1468 1468 1469 1468 1468 1468 1467 1466 1465 1464 1463 1462 1461 1459 1457 1455 1453 1451 1449 1446 1444 1441 1438 1435 1432 1429 1426 1423
1456 1458 1460 1462 1463 1464 1465 1466 1467 1467 1468 1468 1468 1468 1468 1468 1468 1468 1467 1467 1467 1466 1465 1464 1463 1462 1460 1459 1457 1455 1453 1451 1449 1447 1444 1442 1439 1436 1433 1430 1427 1424 1421 1418
1460 1462 1463 1464 1465 1466 1466 1467 1468 1468 1468 1468 1468 1468 1468 1468 1467 1467 1466 1466 1465 1464 1463 1461 1460 1459 1457 1455 1453 1451 1449 1447 1444 1442 1440 1437 1434 1431 1428 1425 1422 1419 1416 1413
1463 1464 1465 1466 1467 1467 1468 1468 1468 1468 1468 1468 1468 1468 1467 1467 1466 1465 1464 1464 1462 1461 1460 1458 1457 1455 1453 1451 1449 1447 1444 1442 1439 1437 1434 1432 1429 1426 1423 1420 1417 1414 1411 1408
1465 1466 1466 1467 1467 1468 1468 1468 1468 1468 1467 1467 1467 1466 1466 1465 1464 1463 1462 1460 1459 1458 1456 1454 1453 1451 1449 1447 1444 1442 1440 1437 1434 1432 1429 1427 1424 1421 1418 1415 1412 1409 1406 1403
1466 1467 1467 1467 1467 1467 1467 1467 1467 1466 1466 1466 1465 1464 1463 1462 1461 1460 1458 1457 1455 1454 1452 1450 1449 1447 1444 1442 1440 1437 1435 1433 1430 1427 1424 1421 1419 1416 1413 1410 1407 1404 1401 1398
1467 1467 1467 1466 1466 1466 1466 1466 1465 1464 1464 1463 1462 1461 1460 1459 1457 1456 1454 1453 1451 1450 1448 1446 1444 1442 1440 1437 1435 1433 1430 1428 1425 1422 1419 1417 1414 1411 1408 1405 1402 1399 1396 1393
1466 1466 1465 1465 1465 1465 1464 1463 1463 1462 1461 1460 1458 1457 1456 1455 1453 1452 1450 1449 1447 1446 1444 1442 1440 1438 1435 1433 1430 1428 1425 1423 1420 1417 1414 1411 1409 1406 1403 1400 1397 1394 1391 1389